www.pogodaiklimat.ru

Погода и климат >> Архив погоды >> Таиланд >> Суфанбури


ПОГОДА в Суфанбури

  • Прогноз погоды в Суфанбури
  • Монитор погоды в Суфанбури

АРХИВ ПОГОДЫ в Суфанбури

Время (UTC), дата Ветер
(напр.,м/с)
 
Видим.   Явления Облачность Т
(С)
Тd
(С)
f
(%)
Тe
(С)
Тes
(С)
Комфортность P
(гПа)
Po
(гПа)
Тmin
(С)
Tmax
(С)
R
(мм)
R24
(мм)
S
(см)
06 14.05 ЮЗ 4 10 км 9/6 600 м
[Cu med, cong Ac As Cs]
+30.5 +24.7 71 +43 +47 опасность
перегрева
1007.5 1006.5
09 14.05 Ю 1 12 км 8/4 600 м
[Cu med, cong Ac lent Cs]
+32.5 +25.6 67 +47 +51 опасность
перегрева
1005.2 1004.2
12 14.05 ЮЗ 3 10 км 9/3 600 м
[Cb cap Ac lent Cs]
+29.0 +24.4 76 +41 +41 опасность
перегрева
1005.8 1004.8 +33.3
15 14.05 Ю 2 8000 м дымка 9/3 600 м
[Cu med, cong As op Cs]
+28.1 +25.1 84 +41 +41 опасность
перегрева
1008.6 1007.5
18 14.05 Ю 3 7000 м дымка 9/4 600 м
[Sc Ac trans Cs]
+27.5 +24.0 81 +38 +38 очень
душно
1008.3 1007.3
21 14.05 Ю 2 7000 м дымка 8/3 600 м
[Sc Ac lent Cs]
+27.0 +24.5 86 +38 +38 очень
душно
1007.7 1006.7
00 15.05 штиль 0 6000 м дымка 8/3 600 м
[Sc Ac trans Cs]
+27.6 +25.5 88 +40 +41 очень
душно
1009.1 1008.1 +26.1
03 15.05 штиль 0 8000 м дымка 8/3 600 м
[Sc Ac trans Cs]
+31.0 +26.2 76 +47 +56 опасность
перегрева
1009.9 1008.9
06 15.05 Ю 2 10 км 8/3 600 м
[Cu hum Cs]
+34.5 +24.8 57 +48 +60 опасность
перегрева
1007.9 1006.9
09 15.05 штиль 0 10 км 8/3 600 м
[Cu med, cong Ac trans Cs]
+35.1 +25.1 56 +49 +54 опасность
перегрева
1005.1 1004.1
12 15.05 штиль 0 10 км гроза без осадков 8/3 600 м
[Cb cap Ac lent Cs]
+35.1 +25.1 56 +49 +49 опасность
перегрева
1007.2 1006.2 +35.6
15 15.05 штиль 0 10 км зарница {гроза} 10/4 600 м
[Cb cap Ac und Cs]
+27.0 +24.1 84 +37 +37 очень
душно
1009.7 1008.7 0.3
18 15.05 штиль 0 8000 м дымка {гроза} 3/0
[Ac lent Cs]
+27.5 +25.4 88 +40 +40 очень
душно
1007.7 1006.7 0.3
21 15.05 штиль 0 7000 м дымка 3/0
[Cs]
+26.7 +25.6 94 +39 +39 очень
душно
1007.4 1006.4
00 16.05 штиль 0 8000 м дымка 6/0
[Ac trans Cs]
+27.0 +25.6 92 +40 +41 очень
душно
1008.8 1007.8 +26.1 0.3
03 16.05 штиль 0 10 км 6/0
[Cs]
+32.6 +24.7 63 +46 +64 опасность
перегрева
1009.9 1008.9
06 16.05 З 2 12 км 8/3 600 м
[Cb cap Cs]
+34.5 +24.6 56 +47 +60 опасность
перегрева
1008.0 1007.1
09 16.05 штиль 0 12 км 8/3 600 м
[Cb cap Ac und Cs]
+35.7 +26.1 58 +52 +57 опасность
перегрева
1005.5 1004.6
12 16.05 штиль 0 10 км 8/3 600 м
[Cb cap Ac und Cs]
+31.7 +25.4 69 +46 +46 опасность
перегрева
1006.9 1005.9 +36.4
15 16.05 ЮЗ 5 8000 м дымка 3/0
[Cs]
+29.7 +25.2 77 +43 +43 опасность
перегрева
1009.3 1008.3
18 16.05 Ю 2 7000 м дымка 3/0
[Cs]
+28.9 +24.3 76 +40 +40 очень
душно
1007.7 1006.7
21 16.05 ЮЗ 2 7000 м дымка 3/0
[Cs]
+27.6 +24.3 82 +39 +39 очень
душно
1007.0 1006.0
00 17.05 штиль 0 8000 м дымка 8/0
[Ac trans Cs]
+28.0 +23.5 77 +38 +40 очень
душно
1008.0 1007.0 +26.5
03 17.05 Ю 2 10 км 3/0
[Cs]
+33.2 +24.4 60 +46 +60 опасность
перегрева
1009.0 1008.0
06 17.05 Ю 2 12 км 4/3 600 м
[Cu hum Cs]
+35.9 +24.9 53 +49 +64 опасность
перегрева
1007.1 1006.1
09 17.05 Ю 2 12 км 6/3 600 м
[Cu med, cong Cs]
+37.4 +24.6 48 +50 +55 опасность
перегрева
1004.1 1003.1
12 17.05 Ю 2 10 км 4/1 600 м
[Cb cap Cs]
+34.5 +26.5 63 +51 +51 опасность
перегрева
1005.1 1004.1 +37.9
15 17.05 Ю 5 8000 м дымка 3/0
[Cs]
+30.4 +25.6 76 +45 +45 опасность
перегрева
1007.3 1006.3
18 17.05 Ю 3 8000 м дымка 3/0
[Cs]
+28.8 +25.1 80 +42 +42 опасность
перегрева
1006.2 1005.2
21 17.05 Ю 2 8000 м дымка 3/0
[Cs]
+28.0 +24.6 82 +40 +40 очень
душно
1005.4 1004.4
00 18.05 штиль 0 7000 м дымка 3/0
[Cs]
+28.0 +23.6 77 +38 +40 очень
душно
1007.2 1006.2 +26.7
03 18.05 ЮЗ 2 10 км 3/0
[Cs]
+32.6 +23.9 60 +44 +59 опасность
перегрева
1008.3 1007.3
06 18.05 Ю 2 12 км 3/3 600 м
[Cu hum Cs]
+36.7 +24.4 49 +49 +64 опасность
перегрева
1006.1 1005.1
09 18.05 ЮЗ 2 12 км 3/3 600 м
[Cu med, cong Cs]
+37.2 +25.0 50 +51 +56 опасность
перегрева
1003.8 1002.9
12 18.05 штиль 0 10 км 3/0
[Cs]
+34.6 +26.9 64 +52 +52 опасность
перегрева
1004.0 1003.0 +38.2
15 18.05 Ю 3 8000 м дымка 3/0
[Cs]
+31.7 +25.0 68 +45 +45 опасность
перегрева
1007.1 1006.1
18 18.05 Ю 3 8000 м дымка 3/0
[Cs]
+30.0 +24.3 72 +42 +42 опасность
перегрева
1006.6 1005.6
21 18.05 Ю 2 7000 м дымка 3/0
[Cs]
+28.5 +24.0 77 +40 +40 очень
душно
1005.9 1004.9
00 19.05 штиль 0 8000 м дымка 3/0
[Cs]
+28.1 +23.7 77 +39 +40 очень
душно
1007.5 1006.5 +26.9
03 19.05 З 3 10 км 3/0
[Cs]
+33.2 +23.3 56 +44 +56 опасность
перегрева
1009.1 1008.1
06 19.05 Ю 2 12 км 3/0
[Cs]
+36.5 +24.0 49 +48 +68 опасность
перегрева
1007.0 1006.0
09 19.05 штиль 0 12 км 3/1 600 м
[Cu hum Cs]
+37.0 +25.1 51 +51 +60 опасность
перегрева
1004.7 1003.7
12 19.05 штиль 0 10 км 4/0
[Ac lent Cs]
+34.9 +26.0 60 +51 +51 опасность
перегрева
1005.2 1004.2 +38.5
15 19.05 Ю 3 8000 м дымка 3/0
[Cs]
+32.0 +25.7 69 +47 +47 опасность
перегрева
1008.3 1007.3
18 19.05 Ю 2 7000 м дымка 3/0
[Cs]
+30.1 +26.0 79 +45 +45 опасность
перегрева
1007.7 1006.7
21 19.05 штиль 0 7000 м дымка 3/0
[Cs]
+29.0 +25.8 83 +43 +43 опасность
перегрева
1006.5 1005.5
00 20.05 штиль 0 7000 м дымка 3/0
[Cs]
+29.5 +25.4 79 +43 +45 опасность
перегрева
1008.0 1007.0 +28.0
03 20.05 ЮВ 2 10 км 3/0
[Cs]
+34.0 +25.6 62 +49 +63 опасность
перегрева
1009.2 1008.2
06 20.05 ЮЗ 2 12 км ясно +37.0 +26.5 55 +53 +75 опасность
перегрева
1007.3 1006.3
09 20.05 ЮВ 2 12 км 6/0
[Cs]
+37.5 +26.2 53 +53 +61 опасность
перегрева
1004.3 1003.4
12 20.05 Ю 3 10 км 8/1 600 м
[Cu med, cong Ac lent Cs]
+34.6 +26.1 61 +50 +50 опасность
перегрева
1005.4 1004.4 +38.5
15 20.05 Ю 4 8000 м дымка 9/1 600 м
[Cu med, cong Ac trans Cs]
+30.3 +24.7 72 +43 +43 опасность
перегрева
1008.3 1007.3
18 20.05 штиль 0 8000 м дымка 8/0
[Ac trans Cs]
+29.3 +25.2 79 +43 +43 опасность
перегрева
1007.7 1006.7
21 20.05 Ю 2 7000 м дымка 3/0
[Cs]
+28.4 +25.7 85 +42 +42 опасность
перегрева
1007.2 1006.2
00 21.05 штиль 0 8000 м дымка 3/0
[Cs]
+29.0 +25.9 83 +43 +45 опасность
перегрева
1008.2 1007.2 +27.5
03 21.05 ЮЗ 2 10 км 3/0
[Cs]
+33.7 +25.6 63 +49 +63 опасность
перегрева
1009.1 1008.1

 

Местоположение метеостанции Суфанбури (Таиланд): широта 14.47 долгота 100.13 высота над уровнем моря 8 м.

В архиве по умолчанию представлена погода в Суфанбури за последнюю неделю. Архивные данные за месяц целиком и за предыдущие месяцы, начиная с января 2011 года, Вы можете получить, выбрав интересующий диапазон дат из раскрывающегося списка и нажав кнопку "Ввод!".


*Определитесь, кто Вы:
робот инопланетянин человек

Внимание! Время в таблицах - всемирное. Для получения местного времени необходимо прибавить поправку, которая равна 7 ч.

Смотрите также архив погоды в соседних городах и на ближайших метеорологических станциях:

Погода в У-Тхонг Агромете (Таиланд) (34 км)
Погода в Накхонпатхоме (Таиланд) (53 км)
Погода в Лопбури (Таиланд) (63 км)
Погода в Аюттхая (Таиланд) (64 км)
Погода в Патхумтхани (Таиланд) (67 км)
Погода в Чайнат Агромете (Таиланд) (76 км)
Погода в Дон Муанг (Таиланд) (79 км)
Погода в Канчанабури (Таиланд) (82 км)
Погода в Сарабури (Таиланд) (85 км)
Погода в Бангкоке (Таиланд) (94 км)

Пояснения к столбцам:

Ветер - указаны скорость ветра в м/с - средняя за 10 мин, порывы в срок и между сроками (в фигурных скобках) и направление, откуда дует ветер: С - северный, СВ - северо-восточный, В - восточный, ЮВ - юго-восточный, Ю - южный, ЮЗ - юго-западный, З - западный, СЗ - северо-западный.
Видимость - горизонтальная дальность видимости в метрах или километрах. При видимости от 1 до 10 км при отсутствии осадков обычно наблюдается дымка, при ухудшении видимости до 1 км и менее - туман. В сухую погоду видимость может ухудшаться дымом, пылью или мглою.
Явления - указаны атмосферные явления, наблюдавшиеся в срок или в последний час перед сроком; фигурными скобками обозначены явления, наблюдавшиеся между сроками (за 1-3 часа до срока); квадратными скобками обозначены град или гололедные отложения с указанием их диаметра в мм.
Облачность - указаны через наклонную черту общая и нижняя облачность в баллах и высота нижней границы облаков в метрах; квадратными скобками обозначены формы облаков: Ci - перистые, Cs - перисто-слоистые, Cc - перисто-кучевые, Ac - высококучевые, As - высокослоистые, Sc - слоисто-кучевые, Ns - слоисто-дождевые, Cu - кучевые, Cb - кучево-дождевые. Подробнее классификацию облаков см. в Атласе облаков (PDF).
T - Температура воздуха - температура, измеренная на высоте 2 м над землей.
Td - Температура точки росы - температура, при понижении до которой содержащийся в воздухе водяной пар достигнет насыщения.
f - Относительная влажность воздуха - влажноcть воздуха, измеренная на высоте 2 м над землей.
Te - Эффективная температура - температура, которую ощущает одетый по сезону человек в тени. Характеристика душности погоды. При расчете учитывается влияние влажности воздуха и скорости ветра на теплоощущения человека.
Tes - Эффективная температура на солнце - температура, которую ощущает человек, с поправкой на солнечный нагрев. Характеристика знойности погоды. Зависит от высоты солнца над горизонтом, облачности и скорости ветра. Ночью, в пасмурную погоду, а также при ветре 12 м/с и более поправка равна нулю.
P - Атмосферное давление - приведенное к уровню моря атмосферное давление.
Po - Атмосферное давление - измеренное на уровне метеостанции атмосферное давление.
Tmin - Минимальная температура - минимум температуры воздуха на высоте 2 м над землей.
Tmax - Максимальная температура - максимум температуры воздуха на высоте 2 м над землей.
R - Количество осадков - Количество выпавших осадков за период времени, мм. При наведении курсора мыши на число - период времени, за который выпало указанное количество осадков.
R24 - Количество осадков - Количество выпавших осадков за 24 часа, мм.
S - Снежный покров - Высота снежного покрова, см. При наведении курсора мыши на число - состояние снежного покрова и степень покрытия местности в баллах.